Track NAVSTAR 34 (USA 94) now! NAVSTAR 34 (USA 94) is classified as:
1 22779U 93054A 25197.27336257 .00000072 00000-0 00000-0 0 9996 2 22779 53.3987 229.9563 0052172 248.2995 109.4964 1.89129719229661